Location: Baix
(44.7118°N, 4.7648°E)
Time: 17:08:34
(UTC+00:00)

Cosmos 1898 Rocket - Pass Details

Date: 07 August 2020
Orbit: 754 x 783 km, 74.0° (Epoch: 23 September)

Event Time Altitude Azimuth Distance (km) Brightness Sun altitude
Exits shadow 02:11:47 33° 172° (S) 1,280 4.3 -20.6°
Maximum altitude 02:14:02 60° 106° (ESE) 875 3.8 -20.4°
Drops below altitude 10° 02:19:10 10° 28° (NNE) 2,304 7.1 -19.8°
Sets 02:21:34 0° 25° (NNE) 3,230 8.2 -19.5°
